Location: Del Amo
(33.8464°N, 118.2104°W)
Time: 08:51:09
(UTC+00:00)

Vanguard 1 Rocket - Pass Details

Date: 15 September 2024
Orbit: 650 x 4218 km, 34.3° (Epoch: 09 October)

Event Time Altitude Azimuth Distance (km) Brightness Sun altitude
Rises 07:41:55 0° 174° (S) 4,306 - -53.3°
Reaches altitude 10° 07:46:37 10° 149° (SSE) 3,942 - -53.4°
Maximum altitude 07:51:24 14° 122° (ESE) 4,243 - -53.4°
Exits shadow 07:56:38 11° 99° (E) 5,110 11.1 -53.3°
Drops below altitude 10° 07:57:29 10° 97° (E) 5,281 11.2 -53.3°
Sets 08:06:14 0° 77° (ENE) 7,192 12.1 -53.1°
